| time (UTC) | temp C | wind direction | speed KPH | gust KPH | rain 1hr cm | rain 24hr cm | rain mn cm | humidity % | barometer mb |
| 20260505171552 | 26 | 174 | 1.6 | 6.4 | 0.00 | 0.00 | 0.00 | 85 | 1010.1 |
| 20260505170105 | 26 | 160 | 1.6 | 9.7 | 0.00 | 0.00 | 0.00 | 86 | 1010.2 |
| 20260505164553 | 26 | 214 | 0.0 | 8.0 | 0.00 | 0.00 | 0.00 | 85 | 1010.1 |
| 20260505163048 | 26 | 198 | 0.0 | 9.7 | 0.00 | 0.00 | 0.00 | 86 | 1010.0 |
| 20260505161552 | 26 | 207 | 1.6 | 8.0 | 0.00 | 0.00 | 0.00 | 86 | 1010.1 |
| 20260505153052 | 26 | 207 | 3.2 | 9.7 | 0.00 | 0.00 | 0.00 | 84 | 1009.8 |
| 20260505151557 | 25 | 212 | 0.0 | 11.3 | 0.00 | 0.00 | 0.00 | 86 | 1009.7 |
| 20260505124525 | 23 | 165 | 0.0 | 3.2 | 0.00 | 0.00 | 0.00 | 92 | 1009.5 |
| 20260505123024 | 23 | 337 | 0.0 | 1.6 | 0.00 | 0.00 | 0.00 | 92 | 1009.1 |
| 20260505121521 | 22 | 229 | 0.0 | 3.2 | 0.00 | 0.00 | 0.00 | 92 | 1009.1 |
| 20260505120016 | 22 | 140 | 0.0 | 1.6 | 0.00 | 0.00 | 0.00 | 92 | 1009.4 |
| 20260505114516 | 22 | 233 | 0.0 | 3.2 | 0.00 | 0.00 | 0.00 | 92 | 1009.2 |
| 20260505113015 | 22 | 223 | 0.0 | 1.6 | 0.00 | 0.00 | 0.00 | 92 | 1009.0 |
| 20260505111508 | 22 | 221 | 0.0 | 1.6 | 0.00 | 0.00 | 0.00 | 91 | 1009.3 |
| 20260505101505 | 22 | 174 | 0.0 | 1.6 | 0.00 | 0.00 | 0.00 | 90 | 1009.2 |
| 20260505100004 | 22 | 214 | 0.0 | 1.6 | 0.00 | 0.00 | 0.00 | 90 | 1009.0 |
| 20260505094502 | 22 | 183 | 0.0 | 1.6 | 0.00 | 0.00 | 0.00 | 91 | 1009.2 |
| 20260505093001 | 22 | 212 | 0.0 | 1.6 | 0.00 | 0.00 | 0.00 | 91 | 1009.5 |
| 20260505091600 | 22 | 207 | 0.0 | 1.6 | 0.00 | 0.00 | 0.00 | 90 | 1009.4 |
| 20260505090107 | 22 | 235 | 0.0 | 1.6 | 0.00 | 0.00 | 0.00 | 90 | 1009.5 |
| 20260505084559 | 22 | 212 | 0.0 | 1.6 | 0.00 | 0.00 | 0.00 | 89 | 1009.4 |
| 20260505083102 | 22 | 223 | 0.0 | 4.8 | 0.00 | 0.00 | 0.00 | 89 | 1009.4 |
| 20260505081557 | 22 | 179 | 0.0 | 0.0 | 0.00 | 0.00 | 0.00 | 89 | 1009.6 |
| 20260505080053 | 22 | 205 | 0.0 | 4.8 | 0.00 | 0.00 | 0.00 | 89 | 1009.7 |
| 20260505074545 | 22 | 210 | 0.0 | 1.6 | 0.00 | 0.00 | 0.00 | 89 | 1009.8 |
| 20260505073044 | 22 | 174 | 0.0 | 3.2 | 0.00 | 0.00 | 0.00 | 88 | 1009.9 |
| 20260505071539 | 22 | 200 | 0.0 | 3.2 | 0.00 | 0.00 | 0.00 | 88 | 1010.0 |
| 20260505070037 | 22 | 209 | 0.0 | 1.6 | 0.00 | 0.00 | 0.00 | 89 | 1010.2 |
| 20260505064532 | 21 | 217 | 0.0 | 3.2 | 0.00 | 0.00 | 0.00 | 89 | 1010.4 |
| 20260505063027 | 21 | 212 | 0.0 | 1.6 | 0.00 | 0.00 | 0.00 | 89 | 1010.8 |
| 20260505061524 | 21 | 226 | 0.0 | 1.6 | 0.00 | 0.00 | 0.00 | 88 | 1010.8 |
| 20260505060028 | 21 | 217 | 0.0 | 3.2 | 0.00 | 0.00 | 0.00 | 88 | 1010.8 |
| 20260505054531 | 21 | 214 | 0.0 | 1.6 | 0.00 | 0.00 | 0.00 | 87 | 1010.9 |
| 20260505053016 | 21 | 217 | 0.0 | 1.6 | 0.00 | 0.00 | 0.00 | 87 | 1010.9 |
| 20260505051515 | 21 | 216 | 0.0 | 1.6 | 0.00 | 0.00 | 0.00 | 87 | 1011.0 |
| 20260505041509 | 21 | 229 | 0.0 | 1.6 | 0.00 | 0.00 | 0.00 | 85 | 1011.5 |
| 20260505040009 | 21 | 213 | 0.0 | 1.6 | 0.00 | 0.00 | 0.00 | 84 | 1011.5 |
| 20260505034509 | 22 | 202 | 0.0 | 4.8 | 0.00 | 0.00 | 0.00 | 84 | 1011.7 |
| 20260505033016 | 22 | 216 | 0.0 | 1.6 | 0.00 | 0.00 | 0.00 | 83 | 1011.7 |
| 20260505031507 | 22 | 202 | 0.0 | 1.6 | 0.00 | 0.00 | 0.00 | 82 | 1011.6 |
| 20260505030007 | 22 | 215 | 0.0 | 1.6 | 0.00 | 0.00 | 0.00 | 82 | 1011.7 |
| 20260505024507 | 22 | 218 | 0.0 | 1.6 | 0.00 | 0.00 | 0.00 | 81 | 1011.8 |
| 20260505023006 | 22 | 219 | 0.0 | 1.6 | 0.00 | 0.00 | 0.00 | 81 | 1011.6 |
| 20260505021506 | 22 | 228 | 0.0 | 4.8 | 0.00 | 0.00 | 0.00 | 80 | 1011.6 |
| 20260505020004 | 22 | 207 | 0.0 | 9.7 | 0.00 | 0.00 | 0.00 | 79 | 1011.5 |
| 20260505014509 | 22 | 153 | 0.0 | 3.2 | 0.00 | 0.00 | 0.00 | 79 | 1011.3 |
| 20260505013003 | 22 | 202 | 0.0 | 4.8 | 0.00 | 0.00 | 0.00 | 79 | 1011.3 |
| 20260505011504 | 23 | 153 | 0.0 | 4.8 | 0.00 | 0.00 | 0.00 | 78 | 1011.4 |
| 20260505010003 | 23 | 216 | 0.0 | 4.8 | 0.00 | 0.00 | 0.00 | 77 | 1011.2 |
| 20260505004509 | 23 | 144 | 0.0 | 6.4 | 0.00 | 0.00 | 0.00 | 76 | 1011.1 |
| 20260505003001 | 23 | 223 | 0.0 | 8.0 | 0.00 | 0.00 | 0.00 | 75 | 1011.2 |
| 20260505001600 | 24 | 144 | 0.0 | 3.2 | 0.00 | 0.00 | 0.00 | 74 | 1011.2 |
| 20260504234622 | 25 | 188 | 0.0 | 6.4 | 0.00 | 0.00 | 0.00 | 72 | 1011.3 |
| 20260504233057 | 25 | 148 | 0.0 | 3.2 | 0.00 | 0.00 | 0.00 | 72 | 1011.4 |
| 20260504231556 | 25 | 200 | 0.0 | 9.7 | 0.00 | 0.00 | 0.00 | 72 | 1011.5 |
| 20260504230050 | 25 | 232 | 1.6 | 11.3 | 0.00 | 0.00 | 0.00 | 72 | 1011.8 |
| 20260504224559 | 25 | 139 | 0.0 | 8.0 | 0.00 | 0.00 | 0.00 | 71 | 1011.8 |
| 20260504223047 | 25 | 141 | 1.6 | 8.0 | 0.00 | 0.00 | 0.00 | 72 | 1012.2 |
| 20260504221557 | 25 | 131 | 0.0 | 6.4 | 0.00 | 0.00 | 0.00 | 71 | 1012.4 |
| 20260504220047 | 25 | 205 | 0.0 | 9.7 | 0.00 | 0.00 | 0.00 | 70 | 1012.4 |
| 20260504214550 | 25 | 147 | 0.0 | 6.4 | 0.00 | 0.00 | 0.00 | 69 | 1012.6 |
| 20260504213051 | 26 | 135 | 0.0 | 4.8 | 0.00 | 0.00 | 0.00 | 69 | 1012.6 |
| 20260504211541 | 26 | 218 | 0.0 | 11.3 | 0.00 | 0.00 | 0.00 | 67 | 1012.7 |
| 20260504210049 | 26 | 169 | 0.0 | 8.0 | 0.00 | 0.00 | 0.00 | 66 | 1013.0 |
| 20260504204617 | 26 | 168 | 0.0 | 6.4 | 0.00 | 0.00 | 0.00 | 66 | 1013.0 |
| 20260504203036 | 26 | 150 | 1.6 | 8.0 | 0.00 | 0.00 | 0.00 | 66 | 1013.3 |
| 20260504201532 | 27 | 191 | 0.0 | 8.0 | 0.00 | 0.00 | 0.00 | 64 | 1013.5 |
| 20260504200037 | 26 | 219 | 0.0 | 14.5 | 0.00 | 0.00 | 0.00 | 66 | 1013.5 |
| 20260504194538 | 26 | 18 | 0.0 | 6.4 | 0.00 | 0.00 | 0.00 | 65 | 1013.6 |
| 20260504193028 | 27 | 238 | 0.0 | 8.0 | 0.00 | 0.00 | 0.00 | 64 | 1014.1 |
| 20260504191529 | 27 | 129 | 0.0 | 6.4 | 0.00 | 0.00 | 0.00 | 64 | 1014.2 |
| 20260504190033 | 27 | 230 | 1.6 | 8.0 | 0.00 | 0.00 | 0.00 | 63 | 1014.2 |
| 20260504184525 | 26 | 197 | 1.6 | 9.7 | 0.00 | 0.00 | 0.00 | 64 | 1014.3 |
| 20260504183024 | 26 | 75 | 0.0 | 11.3 | 0.00 | 0.00 | 0.00 | 66 | 1014.3 |
| 20260504181518 | 26 | 187 | 0.0 | 16.1 | 0.00 | 0.00 | 0.00 | 65 | 1014.6 |
| 20260504180018 | 26 | 172 | 0.0 | 9.7 | 0.00 | 0.00 | 0.00 | 65 | 1014.8 |
| 20260504174515 | 26 | 163 | 0.0 | 9.7 | 0.00 | 0.00 | 0.00 | 65 | 1014.8 |
| 20260504173012 | 26 | 154 | 0.0 | 8.0 | 0.00 | 0.00 | 0.00 | 65 | 1015.3 |